CGYQB CYXU-CYXU

Flight info

Callsign CGYQB
Flight time 0h 2m
Altitude 1900
Route CYXU/09 VFR CIRCUTS
Aircraft C172

Departure

Time 2026-04-25 02:38
Airport London International Airport (CYXU)

Arrival

Time 2026-04-25 02:41
Airport London International Airport (CYXU)
Time Latitude Longitude Altitude Speed Heading
2026-04-25 02:36 43.03728 -81.16287 903 ft 0 kts 348°
2026-04-25 02:37 43.03791 -81.16290 903 ft 15 kts 24°
2026-04-25 02:37 43.03854 -81.16001 902 ft 57 kts 85°
2026-04-25 02:38 43.03944 -81.15391 1079 ft 69 kts 86°
2026-04-25 02:38 43.04047 -81.14750 1271 ft 70 kts 83°
2026-04-25 02:38 43.04232 -81.14082 1434 ft 79 kts 74°
2026-04-25 02:38 43.04128 -81.13420 1641 ft 82 kts 137°
2026-04-25 02:39 43.03563 -81.13126 1797 ft 91 kts 152°
2026-04-25 02:39 43.02923 -81.13439 1839 ft 121 kts 219°
2026-04-25 02:39 43.02548 -81.14545 1886 ft 131 kts 252°
2026-04-25 02:39 43.02319 -81.15739 1897 ft 126 kts 243°
2026-04-25 02:40 43.02258 -81.16936 2023 ft 128 kts 283°
2026-04-25 02:40 43.02778 -81.17870 2030 ft 126 kts 341°
2026-04-25 02:40 43.03453 -81.17690 1746 ft 94 kts 40°
2026-04-25 02:40 43.03746 -81.17035 1234 ft 77 kts 85°
2026-04-25 02:41 43.03820 -81.16308 946 ft 66 kts 89°
2026-04-25 02:41 43.03885 -81.15862 902 ft 23 kts 81°
2026-04-25 02:41 43.03889 -81.15828 907 ft 0 kts 86°
2026-04-25 02:43 43.03925 -81.15536 915 ft 55 kts 87°
2026-04-25 02:43 43.04001 -81.14961 1094 ft 66 kts 88°
2026-04-25 02:43 43.04060 -81.14387 1382 ft 58 kts 87°
2026-04-25 02:43 43.04118 -81.13824 1663 ft 59 kts 86°
2026-04-25 02:44 43.04146 -81.13289 1990 ft 59 kts 86°
2026-04-25 02:44 43.04252 -81.12567 1918 ft 91 kts 81°
2026-04-25 02:44 43.04386 -81.11640 1909 ft 92 kts 103°
2026-04-25 02:44 43.03985 -81.12309 1754 ft 138 kts 244°
2026-04-25 02:45 43.03626 -81.13540 1725 ft 140 kts 243°
2026-04-25 02:45 43.03298 -81.14828 1543 ft 145 kts 246°
2026-04-25 02:45 43.03010 -81.16099 1583 ft 136 kts 266°
2026-04-25 02:45 43.03582 -81.16648 1430 ft 101 kts 35°
2026-04-25 02:46 43.03862 -81.16027 907 ft 55 kts 87°
2026-04-25 02:46 43.03923 -81.15548 924 ft 62 kts 74°
2026-04-25 02:46 43.04028 -81.14948 1134 ft 67 kts 79°
2026-04-25 02:46 43.04164 -81.14299 1319 ft 75 kts 75°
2026-04-25 02:47 43.04057 -81.13697 1447 ft 93 kts 151°
2026-04-25 02:47 43.03380 -81.13524 1477 ft 105 kts 155°
2026-04-25 02:47 43.02670 -81.13452 1553 ft 120 kts 210°
2026-04-25 02:47 43.02297 -81.14492 1671 ft 122 kts 245°
2026-04-25 02:48 43.01955 -81.15516 1643 ft 126 kts 244°
2026-04-25 02:48 43.01595 -81.16599 1728 ft 129 kts 238°
2026-04-25 02:48 43.01596 -81.17778 1846 ft 132 kts 304°
2026-04-25 02:48 43.02267 -81.18593 1737 ft 124 kts 331°
2026-04-25 02:49 43.02867 -81.18715 1602 ft 73 kts 31°
2026-04-25 02:49 43.03342 -81.18512 1426 ft 71 kts 38°
2026-04-25 02:49 43.03572 -81.18019 1276 ft 64 kts 79°
2026-04-25 02:49 43.03650 -81.17444 1125 ft 60 kts 86°
2026-04-25 02:50 43.03727 -81.16891 1088 ft 58 kts 77°
2026-04-25 02:50 43.03745 -81.16339 1009 ft 63 kts 126°
2026-04-25 02:50 43.03547 -81.16783 1094 ft 76 kts 351°
2026-04-25 02:50 43.03804 -81.16407 940 ft 48 kts 79°
2026-04-25 02:51 43.03836 -81.16118 903 ft 17 kts 82°
2026-04-25 02:51 43.03859 -81.15978 902 ft 23 kts 82°
2026-04-25 02:51 43.03824 -81.15837 902 ft 15 kts 139°
2026-04-25 02:51 43.03752 -81.15748 903 ft 13 kts 141°
2026-04-25 02:52 43.03688 -81.15838 903 ft 31 kts 260°
2026-04-25 02:52 43.03632 -81.16248 903 ft 21 kts 267°
2026-04-25 02:52 43.03683 -81.16284 903 ft 14 kts
2026-04-25 02:52 43.03726 -81.16287 903 ft 0 kts 350°